Location: Augirein
(42.9320°N, 0.9181°E)
Time: 08:47:46
(UTC+00:00)

X-37B - Pass Details

Date: 29 September 2021
Orbit: 385 x 389 km, 45.0° (Epoch: 13 October)

Event Time Altitude Azimuth Distance (km) Brightness Sun altitude
Exits shadow 03:02:44 11° 73° (ENE) 1,383 4.2 -30.6°
Drops below altitude 10° 03:02:48 10° 73° (ENE) 1,414 4.3 -30.6°
Sets 03:04:53 0° 76° (ENE) 2,270 5.6 -30.3°
